Participated 3 times
Between 2002 and 2006
Serhiy Honchar, Ukraine
Tour de France 2026 starts from Barcelona, Spain in

Stats and Facts from
Tour de France.

2026   2025   2024   2023  2022  2021  2020  2019   2018  2017   2016   2015  2014  2013   2012   2011  2010   2009   2008   2007   2006   2005   2004   2003   2002   2001   2000   1999   1998   1997  1996   1995   1994   1993   1992  1991   1990   1989   1988   1987   1986   1985   1984   1983  1982  1981   1980   1979  1978  1977   1976  1975  1974  1973   1972   1971   1970  1969   1968   1967   1966   1965  1964  1963   1962   1961   1960   1959   1958   1957  1956   1955   1954   1953   1952  1951  1950  1949   1948  1947  1939   1938   1937   1936   1935   1934   1933  1932   1931   1930  1929   1928   1927   1926  1925  1924  1923   1922   1921   1920   1919  1914   1913   1912   1911   1910  1909   1908   1907   1906  1905  1904   1903 

Tourstats
Sitemap

After stage 21 - 2025:
 16451 starters.
  5464 different riders.
  689 teams.
  2398 stages.
  470 restdays.
  466506.50 km.
  5925 abandoned riders.

Click map for 1907 route.
Facts from Tour de France 1907
  |   Stages.  |   Stage winners.  |   Days in jerseys.  |   Teams.  |   All riders.  |   All riders by age.  |   All riders from.  |  

  |   Rookies.  |   Withdrawls.  |   Average speed.  |   GC.  |   Polka  |   Green  |   White  |   Summits. (In tour)  |   Miscellaneous.  |  

Stage 1 on July 8th. 1907
Pick a stage:  1  2  3  4  5  6  7  8  9  10  11  12  13  14  

After stage 1:    Louis Trousselier  
  ParisRoubaix | Dist: 272.00km. | Winner: Louis Trousselier

Podium

Average speed for all riders in stage:  24,458 km./hr.

1
 Louis Trousselier  Individual08h 49' 30"=30,822  km/h

2
 Marcel Cadolle  Individual08h 53' 00"+  00:03:30 =30,619  km/h

3
 Léon Georget  Individual08h 53' 00"+  00:03:30 =30,619  km/h

4  Lucien Petit-Breton  Individual08h 56' 30"+  00:07:00 =30,419  km/h

5  Georges Passerieu  Individual09h 14' 00"+  00:24:30 =29,458  km/h

6  Emile Georget  Individual09h 14' 00"+  00:24:30 =29,458  km/h

7  François Beaugendre  Individual09h 14' 00"+  00:24:30 =29,458  km/h

8  Henri Cornet  Individual09h 21' 00"+  00:31:30 =29,091  km/h

9  Constant Menager  Individual09h 21' 00"+  00:31:30 =29,091  km/h

10  Georges Landrieu  Individual09h 22' 00"+  00:32:30 =29,039  km/h

11  Alois Catteau  Individual09h 22' 00"+  00:32:30 =29,039  km/h

12  Marcel Lequatre  Individual09h 22' 00"+  00:32:30 =29,039  km/h

13  Augustin Ringeval  Individual09h 31' 00"+  00:41:30 =28,581  km/h

14  Cyrille Van Hauwaert  Individual09h 31' 00"+  00:41:30 =28,581  km/h

15  François Faber  Individual09h 31' 00"+  00:41:30 =28,581  km/h

16  Lucien Pothier  Individual09h 31' 00"+  00:41:30 =28,581  km/h

17  Marcel Godivier  Individual09h 32' 00"+  00:42:30 =28,531  km/h

18  Ernest Ricaux  Individual09h 40' 00"+  00:50:30 =28,138  km/h

19  Alfred Faure  Individual09h 40' 00"+  00:50:30 =28,138  km/h

20  Julien Gabory  Individual09h 41' 00"+  00:51:30 =28,090  km/h

21  Henri Lignon  Individual09h 43' 00"+  00:53:30 =27,993  km/h

22  Carlo Galetti  Individual09h 47' 00"+  00:57:30 =27,802  km/h

23  Gustave Garrigou  Individual09h 54' 00"+  01:04:30 =27,475  km/h

24  Julien Maîtron  Individual09h 54' 00"+  01:04:30 =27,475  km/h

25  Pierre Privat  Individual09h 54' 00"+  01:04:30 =27,475  km/h

26  Clément Anselme Mazan  Individual09h 54' 00"+  01:04:30 =27,475  km/h

27  Marcel Lecuyer  Individual10h 15' 00"+  01:25:30 =26,537  km/h

28  Ferdinand Payan  Individual10h 15' 00"+  01:25:30 =26,537  km/h

29  Christophe Laurent  Individual10h 16' 00"+  01:26:30 =26,494  km/h

30  Eugène Delaye  Individual10h 25' 00"+  01:35:30 =26,112  km/h

31  Anton Jaeck  Individual10h 25' 00"+  01:35:30 =26,112  km/h

32  Gaston Tuvache  Individual10h 25' 00"+  01:35:30 =26,112  km/h

33  Martin Soulie  Individual10h 25' 00"+  01:35:30 =26,112  km/h

34  Alzire Vivier  Individual10h 25' 00"+  01:35:30 =26,112  km/h

35  Charles Jeanperin  Individual10h 27' 00"+  01:37:30 =26,029  km/h

36  Georges Fleury  Individual10h 30' 00"+  01:40:30 =25,905  km/h

37  Jean-Baptiste Roux  Individual10h 31' 00"+  01:41:30 =25,864  km/h

38  Fernand Vercher  Individual10h 33' 00"+  01:43:30 =25,782  km/h

39  Auguste Dufour  Individual10h 33' 00"+  01:43:30 =25,782  km/h

40  Charles Crupelandt  Individual10h 35' 00"+  01:45:30 =25,701  km/h

41  François Poiry  Individual10h 37' 00"+  01:47:30 =25,620  km/h

42  Luigi Ganna  Individual10h 51' 00"+  02:01:30 =25,069  km/h

43  Eberardo Pavesi  Individual10h 51' 00"+  02:01:30 =25,069  km/h

44  Honore Genin  Individual10h 53' 00"+  02:03:30 =24,992  km/h

45  Armand Roume  Individual10h 54' 00"+  02:04:30 =24,954  km/h

46  Alfred Quenon  Individual11h 01' 00"+  02:11:30 =24,690  km/h

47  Marius Julien Villette  Individual11h 13' 00"+  02:23:30 =24,250  km/h

48  Edouard Wattelier  Individual11h 15' 00"+  02:25:30 =24,178  km/h

49  François  Lafourcade  Individual11h 15' 00"+  02:25:30 =24,178  km/h

50  Philippe Pautrat  Individual11h 18' 00"+  02:28:30 =24,071  km/h

51  Henri Lorillon  Individual11h 18' 00"+  02:28:30 =24,071  km/h

52  Gabriel Mathonat  Individual11h 19' 00"+  02:29:30 =24,035  km/h

53  Albert Baudet  Individual11h 22' 00"+  02:32:30 =23,930  km/h

54  Henri Timmermann  Individual11h 39' 00"+  02:49:30 =23,348  km/h

55  Joseph Rouaix  Individual11h 53' 00"+  03:03:30 =22,889  km/h

56  Georges Bronchard  Individual11h 54' 00"+  03:04:30 =22,857  km/h

57  Louis Lavalette  Individual11h 56' 00"+  03:06:30 =22,793  km/h

58  Joseph Ponthieu  Individual12h 03' 00"+  03:13:30 =22,573  km/h

59  Prosper Rau  Individual12h 04' 00"+  03:14:30 =22,541  km/h

60  Fernand Lallement  Individual12h 15' 00"+  03:25:30 =22,204  km/h

61  Marceau Narcy  Individual12h 26' 00"+  03:36:30 =21,877  km/h

62  Albert Chartier  Individual12h 37' 00"+  03:47:30 =21,559  km/h

63  Rene Fleury  Individual12h 49' 00"+  03:59:30 =21,222  km/h

64  Henri Star  Individual12h 58' 00"+  04:08:30 =20,977  km/h

65  Albert Geraud  Individual13h 00' 00"+  04:10:30 =20,923  km/h

66  Jacques Mendes  Individual13h 00' 00"+  04:10:30 =20,923  km/h

67  Marcel Dozol  Individual13h 00' 00"+  04:10:30 =20,923  km/h

68  Jules Chabas  Individual13h 00' 00"+  04:10:30 =20,923  km/h

69  Léon Riche  Individual13h 00' 00"+  04:10:30 =20,923  km/h

70  Octave Noel  Individual13h 00' 00"+  04:10:30 =20,923  km/h

71  Léon Aumonier  Individual13h 00' 00"+  04:10:30 =20,923  km/h

72  Gaston Angeli  Individual13h 00' 00"+  04:10:30 =20,923  km/h

73  David Dupont  Individual13h 00' 00"+  04:10:30 =20,923  km/h

74  Georges Devilly  Individual13h 00' 00"+  04:10:30 =20,923  km/h

75  Andre Sevestre  Individual13h 00' 00"+  04:10:30 =20,923  km/h

76  Eloi Guichard  Individual13h 00' 00"+  04:10:30 =20,923  km/h

77  Alfred Le Bars  Individual13h 00' 00"+  04:10:30 =20,923  km/h

78  Henri Pépin  Individual13h 00' 00"+  04:10:30 =20,923  km/h

79  Jean Dargassies  Individual13h 00' 00"+  04:10:30 =20,923  km/h

80  Jean Gauban  Individual13h 00' 00"+  04:10:30 =20,923  km/h

81  Jean-Marie Techenne  Individual13h 00' 00"+  04:10:30 =20,923  km/h

82  Jean Vezie  Individual13h 00' 00"+  04:10:30 =20,923  km/h

83  Louis Gardent  Individual13h 00' 00"+  04:10:30 =20,923  km/h

84  Claude  Cursillat  Individual13h 00' 00"+  04:10:30 =20,923  km/h

85  Henri Anthoine  Individual13h 00' 00"+  04:10:30 =20,923  km/h

86  Pierre Desvages  Individual13h 00' 00"+  04:10:30 =20,923  km/h


Withdrawls: 7
 RiderTeamReason
17   Noël Prevost IndividualDid not finish
23   Paul Ader IndividualDid not finish
64   Arsene Tuale IndividualDid not finish
78   Georges Jeanblanc IndividualDid not finish
95   Ernest Bertholat IndividualDid not finish
103   Raymond Etcheverry IndividualDid not finish
105   Antony Wattelier IndividualDid not finish
Todays birthdays.

1884 • Vincenzo Borgarello
1889 • Emile Bonnefoi
1889 • Auguste Denizot
1890 • Maurice Petit
1904 • Pierino Ferioli
1905 • Vincent Carrara
1910 • Antoon Van Schendel
1925 • Georges Meunier
1945 • Gérard Besnard
1950 • Wim Kelleners
1960 • Ivan Ivanov
1960 • Pierre-Henri Menthéour
1962 • Giovanni Bottoia
1964 • Flavio Giupponi
1974 • Benoit Salmon
1977 • Iñigo Landaluze
1977 • Svein Tuft
1979 • Rubens Bertogliati
1985 • Matthew Busche

 

Optimized for Chrome - Edge
and Opera browsers.